Cosmos 371 Rocket - Orbit

View from above orbital plane
View from above orbital plane
View from above satellite
View from above satellite

Ground track
Ground track

The orbit data is extracted from the following two-line orbital elements,

1 04579U 70083B   13139.15650369  .00000446  00000-0  10073-3 0  6147
2 04579 074.0057 060.4381 0009731 074.7028 028.9718 14.59233715257335
Epoch (UTC): 19 May 2013 03:45:21
Eccentricity: 0.0009731
inclination: 74.0057°
perigee height: 689 km
apogee height: 702 km
right ascension of ascending node: 60.4381°
argument of perigee: 74.7028°
revolutions per day: 14.59233715
mean anomaly at epoch: 28.9718°
orbit number at epoch: 25733

The dashed part of the orbit path shows where the satellite is in the earth's shadow,  

Developed and maintained by Chris Peat, Heavens-Above GmbH. Please read the updated FAQ before sending e-mail. Imprint. DLR